Weather History for KFSE - February, 2013

Change the Weather History Date:

Monday, February 18, 2013

  Actual Average Record
Temperature  
Mean Temperature 13 °F -  
Max Temperature 28 °F 22 °F 48 °F (2002)
Min Temperature -2 °F 3 °F -34 °F (1989)
Degree Days  
Heating Degree Days 52    
Moisture  
Dew Point 7 °F    
Average Humidity 83    
Maximum Humidity 100    
Minimum Humidity 67    
Precipitation  
Precipitation 0.04 in - - ()
Sea Level Pressure  
Sea Level Pressure 29.70 in    
Wind  
Wind Speed 15 mph (NW)    
Max Wind Speed 29 mph    
Max Gust Speed 40 mph    
Visibility 3 miles    
Events Snow    
Averages and records for this station are not official NWS values.
T = Trace of Precipitation, MM = Missing Value Source: NWS Daily Summary

Daily Weather History Graph

Daily Weather History Graph

Search for Another Location

Airport or City:

Trip Planner

Search our weather history database for the weather conditions in past years. The results will help you decide how hot, cold, wet, or windy it might be!

Date:

Astronomy

Feb. 18, 2013 Rise Set
Actual Time 7:23 AM CST 5:51 PM CST
Civil Twilight 6:51 AM CST 6:23 PM CST
Nautical Twilight 6:15 AM CST 6:58 PM CST
Astronomical Twilight 5:40 AM CST 7:34 PM CST
Moon 11:25 AM CST (2/18) 2:15 AM CST (2/18)
Length of Visible Light 11h 31m
Length of Day
10h 28m
First Quarter, 58% of the Moon is Illuminated
Feb 18
First Quarter
Feb 25
Full
Mar 4
Last Quarter
Mar 11
New
Mar 19
First Quarter

Hourly Weather History & Observations

Time (CST) Temp. Windchill Dew Point Humidity Pressure Visibility Wind Dir Wind Speed Gust Speed Precip Events Conditions
12:15 AM 28.4 °F 17.5 °F 24.8 °F 86% 29.48 in 10.0 mi South 13.8 mph - N/A   Overcast
12:35 AM 28.4 °F 18.0 °F 24.8 °F 86% 29.48 in 10.0 mi South 12.7 mph - N/A   Overcast
12:55 AM 28.4 °F 19.7 °F 24.8 °F 86% 29.47 in 10.0 mi SSE 9.2 mph - N/A   Overcast
1:15 AM 28.4 °F 19.1 °F 24.8 °F 86% 29.46 in 10.0 mi SSE 10.4 mph - N/A   Overcast
1:35 AM 28.4 °F 18.5 °F 24.8 °F 86% 29.45 in 10.0 mi SSE 11.5 mph - N/A   Mostly Cloudy
1:55 AM 28.4 °F 18.0 °F 24.8 °F 86% 29.46 in 10.0 mi South 12.7 mph - N/A   Overcast
2:15 AM 28.4 °F 19.1 °F 24.8 °F 86% 29.46 in 3.0 mi South 10.4 mph - N/A Snow Light Snow
2:35 AM 26.6 °F 17.5 °F 24.8 °F 93% 29.46 in 4.0 mi South 9.2 mph - N/A Snow Light Snow
2:55 AM 26.6 °F 19.1 °F 24.8 °F 93% 29.46 in 3.0 mi South 6.9 mph - N/A Snow Light Snow
3:15 AM 26.6 °F - 24.8 °F 93% 29.45 in 2.5 mi Calm Calm - N/A Snow Light Snow
3:35 AM 26.6 °F 20.0 °F 24.8 °F 93% 29.46 in 1.2 mi South 5.8 mph - N/A Snow Light Snow
3:55 AM 26.6 °F 21.2 °F 24.8 °F 93% 29.45 in 0.8 mi SSW 4.6 mph - 0.01 in Snow Snow
4:15 AM 26.6 °F - 24.8 °F 93% 29.45 in 0.8 mi Calm Calm - N/A Snow Snow
4:35 AM 26.6 °F 22.6 °F 24.8 °F 93% 29.45 in 1.2 mi SSW 3.5 mph - 0.01 in Snow Light Snow
4:55 AM 26.6 °F 20.0 °F 24.8 °F 93% 29.45 in 1.0 mi SSW 5.8 mph - 0.01 in Snow Light Snow
5:15 AM 26.6 °F 19.1 °F 24.8 °F 93% 29.46 in 1.5 mi SSW 6.9 mph - 0.01 in Snow Light Snow
5:35 AM 24.8 °F 12.9 °F 24.8 °F 100% 29.46 in 1.8 mi West 13.8 mph - 0.01 in Snow Light Snow
5:55 AM 23.0 °F 13.1 °F 21.2 °F 93% 29.48 in 2.0 mi West 9.2 mph - 0.01 in Snow Light Snow
6:15 AM 23.0 °F 13.1 °F 21.2 °F 93% 29.48 in 2.0 mi West 9.2 mph - N/A Snow Light Snow
6:35 AM 23.0 °F 13.1 °F 21.2 °F 93% 29.49 in 2.0 mi West 9.2 mph - N/A   Overcast
6:55 AM 23.0 °F 7.2 °F 21.2 °F 93% 29.49 in 1.8 mi NW 23.0 mph 31.1 mph 0.01 in Snow Light Snow
7:15 AM 21.2 °F 4.9 °F 19.4 °F 93% 29.51 in 1.2 mi NW 23.0 mph 40.3 mph N/A Snow Light Snow
7:35 AM 19.4 °F 0.8 °F 17.6 °F 93% 29.52 in 0.8 mi NW 28.8 mph 34.5 mph N/A Snow Light Snow
8:15 AM 15.8 °F -1.9 °F 12.2 °F 86% 29.56 in 1.5 mi NW 21.9 mph 29.9 mph N/A Snow Light Snow
8:35 AM 15.8 °F -1.5 °F 10.4 °F 79% 29.57 in 1.5 mi NW 20.7 mph 31.1 mph N/A Snow Light Snow
8:55 AM 12.2 °F -7.5 °F 8.6 °F 85% 29.58 in 0.8 mi NW 24.2 mph 33.4 mph N/A Snow Light Snow
9:15 AM 10.4 °F -8.6 °F 6.8 °F 85% 29.60 in 0.8 mi NW 20.7 mph 33.4 mph N/A Snow Light Snow
9:35 AM 10.4 °F -11.4 °F 6.8 °F 85% 29.62 in 0.8 mi NW 28.8 mph 34.5 mph N/A Snow Light Snow
9:55 AM 10.4 °F -11.0 °F 5.0 °F 79% 29.63 in 0.8 mi NW 27.6 mph 34.5 mph N/A Snow Light Snow
10:15 AM 10.4 °F -10.7 °F 5.0 °F 79% 29.65 in 1.0 mi NNW 26.5 mph 35.7 mph N/A Snow Light Snow
10:35 AM 10.4 °F -9.5 °F 5.0 °F 79% 29.66 in 0.8 mi NW 23.0 mph 34.5 mph N/A Snow Light Snow
10:55 AM 8.6 °F -11.0 °F 3.2 °F 79% 29.68 in 1.0 mi NNW 20.7 mph 33.4 mph N/A Snow Light Snow
11:15 AM 10.4 °F -8.2 °F 3.2 °F 73% 29.69 in 1.2 mi NW 19.6 mph 27.6 mph N/A Snow Light Snow
11:35 AM 10.4 °F -9.5 °F 3.2 °F 73% 29.70 in 0.8 mi NW 23.0 mph 31.1 mph N/A Snow Light Snow
11:54 AM 10.4 °F -10.7 °F 3.2 °F 73% 29.71 in 0.5 mi NW 26.5 mph 31.1 mph N/A Snow Light Snow
12:15 PM 8.6 °F -11.0 °F 1.4 °F 73% 29.72 in 1.2 mi NW 20.7 mph 27.6 mph N/A Snow Light Snow
12:35 PM 8.6 °F -10.0 °F 1.4 °F 73% 29.74 in 1.0 mi NW 18.4 mph 25.3 mph N/A Snow Light Snow
12:54 PM 8.6 °F -11.0 °F 1.4 °F 73% 29.75 in 1.0 mi NW 20.7 mph 28.8 mph N/A Snow Light Snow
1:15 PM 8.6 °F -10.5 °F 1.4 °F 73% 29.76 in 1.0 mi NW 19.6 mph 28.8 mph N/A Snow Light Snow
1:35 PM 8.6 °F -8.9 °F 1.4 °F 73% 29.77 in 1.0 mi NW 16.1 mph 27.6 mph N/A Snow Light Snow
1:55 PM 8.6 °F -10.5 °F -0.4 °F 67% 29.78 in 1.2 mi NW 19.6 mph 27.6 mph N/A Snow Light Snow
2:15 PM 6.8 °F -12.9 °F -0.4 °F 72% 29.78 in 1.2 mi NW 19.6 mph 26.5 mph N/A Snow Light Snow
2:35 PM 5.0 °F -17.5 °F -0.4 °F 78% 29.79 in 1.0 mi NNW 25.3 mph 31.1 mph N/A Snow Light Snow
2:55 PM 5.0 °F -16.7 °F -0.4 °F 78% 29.79 in 0.8 mi NW 23.0 mph 31.1 mph N/A Snow Light Snow
3:15 PM 5.0 °F -16.2 °F -0.4 °F 78% 29.80 in 1.0 mi NW 21.9 mph 31.1 mph N/A Snow Light Snow
3:35 PM 3.2 °F -19.0 °F -2.2 °F 78% 29.81 in 1.2 mi NW 23.0 mph 27.6 mph N/A Snow Light Snow
3:55 PM 3.2 °F -19.0 °F -2.2 °F 78% 29.82 in 1.2 mi NW 23.0 mph 27.6 mph N/A Snow Light Snow
4:15 PM 3.2 °F -17.6 °F -2.2 °F 78% 29.83 in 1.2 mi NW 19.6 mph 25.3 mph N/A Snow Light Snow
4:35 PM 1.4 °F -21.4 °F -2.2 °F 85% 29.84 in 1.2 mi NW 23.0 mph 29.9 mph N/A Snow Light Snow
4:55 PM 1.4 °F -19.9 °F -4.0 °F 78% 29.86 in 1.8 mi NW 19.6 mph 28.8 mph N/A   Haze
5:15 PM 1.4 °F -20.5 °F -4.0 °F 78% 29.86 in 3.0 mi NNW 20.7 mph 26.5 mph N/A   Haze
5:35 PM -0.4 °F -24.3 °F -5.8 °F 78% 29.88 in 4.0 mi NNW 24.2 mph 28.8 mph N/A Snow Light Snow
5:54 PM -0.4 °F -22.3 °F -5.8 °F 78% 29.89 in 2.0 mi NNW 19.6 mph 28.8 mph N/A   Haze
6:15 PM -0.4 °F -24.3 °F -5.8 °F 78% 29.90 in 2.5 mi NNW 24.2 mph 28.8 mph N/A   Overcast
6:35 PM -0.4 °F -22.8 °F -5.8 °F 78% 29.91 in 5.0 mi NW 20.7 mph 25.3 mph N/A   Haze
6:55 PM -2.2 °F -26.2 °F -5.8 °F 85% 29.92 in 4.0 mi NNW 23.0 mph 29.9 mph N/A   Scattered Clouds
7:15 PM -2.2 °F -25.2 °F -7.6 °F 78% 29.93 in 5.0 mi NNW 20.7 mph - N/A   Haze
7:35 PM -2.2 °F -22.9 °F -7.6 °F 78% 29.93 in 7.0 mi NW 16.1 mph - N/A   Overcast
7:55 PM -2.2 °F -24.1 °F -7.6 °F 78% 29.94 in 7.0 mi NW 18.4 mph - N/A   Overcast
8:15 PM -2.2 °F -24.1 °F -7.6 °F 78% 29.94 in 7.0 mi NW 18.4 mph 25.3 mph N/A   Overcast
8:35 PM -2.2 °F -24.7 °F -7.6 °F 78% 29.94 in 5.0 mi NW 19.6 mph 26.5 mph N/A   Overcast
8:55 PM -2.2 °F -25.2 °F -7.6 °F 78% 29.95 in 7.0 mi NNW 20.7 mph 26.5 mph N/A   Overcast
9:15 PM -2.2 °F -25.2 °F -7.6 °F 78% 29.95 in 5.0 mi NNW 20.7 mph 26.5 mph N/A   Haze
9:35 PM -2.2 °F -25.2 °F -5.8 °F 85% 29.96 in 5.0 mi NW 20.7 mph 25.3 mph N/A   Overcast
10:15 PM -2.2 °F -24.1 °F -5.8 °F 85% 29.97 in 5.0 mi NW 18.4 mph 25.3 mph N/A   Overcast
10:35 PM -2.2 °F -25.7 °F -5.8 °F 85% 29.97 in 7.0 mi NNW 21.9 mph 26.5 mph N/A   Overcast
10:55 PM -2.2 °F -25.2 °F -5.8 °F 85% 29.98 in 7.0 mi NNW 20.7 mph - N/A   Overcast
11:15 PM -2.2 °F -24.1 °F -5.8 °F 85% 29.99 in 7.0 mi NNW 18.4 mph 24.2 mph N/A   Overcast
11:34 PM -2.2 °F -24.1 °F -7.6 °F 78% 30.00 in 7.0 mi NNW 18.4 mph 25.3 mph N/A   Overcast
11:55 PM -2.2 °F -23.5 °F -7.6 °F 78% 30.01 in 10.0 mi NNW 17.3 mph - N/A   Overcast